Temperature
20 19 20 20 20 20 20 20 19 19 19 19 19 19 19 19 19 18 18 18 18 18 18 18 18 18 18 18 18 18 18 17 17 17 17 17 17 17 17 17 17 16 17
20 19 20 20 20 20 20 20 19 19 19 19 19 19 19 19 18 18 18 18 18 18 18 18 18 18 18 18 18 18 17 17 17 17 17 17 17 17 17 17 16 17 17
20 19 20 20 20 20 20 20 20 19 19 19 19 19 19 18 18 18 18 18 18 18 18 18 18 18 18 18 18 17 17 17 17 17 17 17 17 17 17 17 17 17 17
20 19 19 20 20 20 20 20 20 19 19 19 19 19 19 18 18 18 18 18 18 18 18 18 18 18 18 17 17 17 17 17 17 17 17 16 16 17 17 17 17 17 17
20 19 19 20 20 20 20 20 20 19 19 19 19 19 19 18 18 18 18 18 18 18 18 18 18 18 18 17 17 17 17 17 17 17 17 16 17 17 17 17 17 17 17
20 19 19 20 20 20 20 19 19 19 19 19 19 19 19 18 18 18 18 18 18 18 18 18 17 17 17 17 17 17 17 17 17 17 16 16 17 17 17 17 17 17 17
20 19 19 20 20 19 19 19 19 19 19 19 19 19 18 18 18 18 18 18 18 18 18 17 17 17 17 17 17 17 17 17 17 17 16 16 17 17 17 17 17 17 17
20 19 18 20 19 19 19 19 19 19 19 19 19 18 18 18 18 18 18 18 17 17 17 17 17 17 17 17 17 17 17 17 17 17 17 16 17 17 17 17 17 17 17
20 20 18 18 19 19 19 19 19 19 19 19 18 18 18 18 18 18 18 18 17 17 17 17 17 17 17 17 17 17 17 17 17 17 17 16 17 17 17 17 17 17 17
20 19 18 18 18 18 18 19 19 18 18 18 18 18 18 18 18 18 18 18 18 17 17 17 17 17 17 17 17 17 17 17 17 17 17 16 17 17 17 17 17 17 17
19 19 19 18 18 18 18 18 18 18 18 18 18 18 18 17 17 17 17 18 17 17 17 17 17 17 17 17 17 17 17 17 17 17 17 17 17 17 17 17 17 17 16
19 19 18 18 18 18 18 18 18 17 18 17 17 17 17 17 17 17 17 18 18 18 17 17 17 17 17 17 17 17 17 17 17 17 17 17 17 17 17 17 17 17 16
19 18 18 18 18 18 18 18 18 17 18 17 17 17 17 17 17 17 17 17 17 17 17 17 17 17 17 17 17 17 17 17 17 17 17 17 17 17 17 17 17 17 17
19 18 18 18 18 18 18 18 18 18 18 17 17 17 17 17 17 17 17 17 17 17 17 17 17 17 17 17 17 17 17 17 17 17 17 17 17 17 17 17 16 17 17
18 18 18 18 18 18 18 18 18 18 17 17 17 17 17 17 17 17 17 17 17 17 17 17 16 17 17 16 17 17 17 17 17 17 17 17 17 17 17 17 17 16 16
18 18 18 18 18 18 18 18 17 17 17 17 17 17 17 17 17 17 17 17 17 17 17 16 16 16 17 17 17 17 17 17 17 17 17 17 17 17 17 17 17 16 16
18 18 18 18 18 18 18 18 17 17 17 17 17 17 17 17 17 17 17 17 17 16 16 16 16 16 17 17 16 16 17 16 16 16 16 16 16 17 17 17 16 16 16
18 18 18 17 17 18 18 18 17 17 17 17 17 17 17 17 17 17 17 17 16 16 16 16 16 16 16 16 16 16 16 16 16 16 16 16 16 16 16 17 16 16 16
18 18 18 17 17 17 18 17 17 17 17 17 17 17 17 17 17 16 16 16 16 16 16 16 16 17 16 16 16 16 16 16 16 16 16 16 16 16 16 16 16 16 16
18 18 17 17 17 17 17 17 17 17 17 17 17 17 17 17 17 16 16 16 16 16 16 16 16 16 16 16 17 17 16 16 16 16 16 16 16 16 16 16 16 16 16
17 18 17 17 17 17 17 17 17 17 17 17 17 17 17 16 16 16 16 16 16 16 16 16 16 16 16 16 17 17 17 17 16 16 16 16 16 16 16 16 16 16 16
17 17 17 17 17 17 17 17 17 17 17 17 17 17 16 16 16 16 16 16 16 16 15 15 15 16 16 16 17 17 18 17 16 17 16 16 16 16 16 16 16 16 16
17 17 17 17 17 17 17 17 17 17 17 17 16 17 16 16 16 16 16 16 15 15 15 15 15 15 16 16 16 17 18 19 18 17 16 16 16 16 16 16 16 15 15
17 17 17 17 17 17 17 17 17 17 17 17 17 16 16 16 16 15 15 15 15 15 15 15 15 15 15 16 16 16 16 17 18 18 17 17 16 16 16 16 16 16 15
17 16 16 17 17 17 17 17 17 17 16 17 16 16 16 16 16 15 15 15 15 15 15 15 15 15 15 16 16 16 16 16 17 18 18 18 17 17 16 16 16 16 16
16 16 16 16 16 16 17 17 17 16 16 16 16 16 16 16 15 15 15 15 15 15 14 14 15 15 15 15 16 16 16 17 17 18 18 17 18 17 16 16 16 16 16
Wind_Speed
15 18 19 16 15 15 15 15 16 16 17 16 16 15 14 13 12 11 10 9 9 9 9 9 10 10 10 11 12 12 13 12 13 14 15 14 15 15 15 15 15 17 17
19 20 21 18 17 16 16 16 16 16 17 16 15 14 13 12 11 10 10 9 9 9 9 9 10 10 11 11 12 12 12 13 13 14 14 14 14 14 13 12 13 16 16
21 22 21 19 18 17 16 16 16 16 16 16 15 14 13 12 11 10 10 10 10 9 10 10 10 10 11 11 12 12 12 13 13 12 12 13 14 13 13 14 16 16 16
22 22 21 20 19 18 17 16 16 16 16 15 14 13 12 11 11 11 10 10 10 10 10 10 10 10 10 11 12 12 12 13 12 10 10 11 12 14 14 15 15 15 15
21 21 21 21 20 19 18 17 16 16 16 15 14 13 12 11 11 11 10 10 10 10 10 10 10 10 10 11 11 12 12 11 8 6 10 10 12 13 13 14 14 14 14
20 21 23 21 20 19 18 17 16 16 15 14 14 13 12 11 10 10 10 10 10 10 10 9 9 9 9 10 11 11 11 9 8 9 9 10 12 13 13 13 13 14 13
20 20 23 21 20 19 18 17 16 16 15 14 13 12 11 11 10 10 10 10 10 10 10 9 9 8 9 9 10 10 9 5 5 8 9 10 12 13 12 13 13 13 12
20 19 22 20 19 19 18 17 16 15 15 13 13 12 12 11 10 10 10 9 9 9 9 8 8 8 8 8 9 9 8 5 7 8 8 11 13 11 12 12 12 12 12
18 18 20 20 19 18 17 16 16 15 14 13 12 12 11 10 10 9 9 8 8 8 8 7 7 7 8 8 8 9 7 3 5 7 8 10 11 10 11 11 11 11 11
16 17 17 18 18 18 17 16 15 14 14 13 12 11 10 10 9 9 9 8 7 7 6 6 7 7 7 7 8 8 8 7 5 7 7 11 11 10 10 10 10 10 10
15 14 16 16 16 16 16 17 16 15 13 13 12 11 10 10 10 9 8 8 6 6 5 5 5 5 5 8 8 8 8 4 6 5 7 14 11 9 9 9 9 9 10
18 16 14 14 14 14 13 15 13 13 13 11 10 11 9 7 6 6 10 6 5 5 5 5 4 5 6 7 9 9 5 3 5 6 9 12 9 9 9 9 8 9 9
18 16 15 14 13 12 10 12 10 10 10 10 9 9 7 7 7 6 7 8 7 7 6 7 6 4 3 2 3 4 3 4 3 5 10 11 9 9 9 8 8 9 9
17 16 15 14 13 11 10 10 10 9 9 8 9 9 7 5 5 4 4 4 5 4 3 3 3 3 2 3 2 2 3 3 3 4 9 10 8 8 9 9 9 9 9
16 16 15 14 13 11 9 8 9 8 9 9 8 8 6 5 4 4 3 3 3 3 4 4 3 4 3 4 3 4 3 2 2 3 7 9 9 8 8 9 9 9 9
16 16 14 14 13 12 10 8 7 9 8 8 8 8 7 5 4 4 4 4 3 3 2 3 3 4 4 3 3 3 3 4 4 4 6 9 9 9 9 9 9 9 9
14 14 14 14 13 13 11 10 8 8 9 7 7 7 6 5 4 4 4 4 4 4 4 4 4 4 4 4 4 4 3 3 4 4 4 5 9 10 10 9 9 10 10
13 14 14 13 14 13 10 9 7 7 8 7 7 7 6 5 5 5 4 4 4 4 4 3 4 4 4 4 4 3 3 3 4 5 5 4 5 7 10 11 10 10 10
13 13 14 13 13 12 10 8 8 7 6 6 6 6 6 5 5 5 4 3 5 4 4 4 4 4 4 3 4 4 4 3 4 5 4 5 5 5 7 11 10 9 10
12 13 14 14 13 11 9 8 7 7 6 6 6 5 6 6 6 5 4 4 5 4 4 3 3 2 2 3 3 3 3 4 4 4 4 5 6 7 6 6 9 10 11
12 13 13 14 14 12 10 9 8 8 7 6 6 6 6 6 6 5 4 4 4 4 4 5 4 5 4 3 4 4 4 4 4 4 4 4 5 5 5 6 7 6 9
13 14 13 13 14 13 10 8 7 7 7 6 5 6 6 6 6 6 4 5 4 3 4 4 4 4 4 4 4 4 4 5 5 4 4 4 4 5 5 7 6 6 6
13 13 13 13 13 13 12 9 8 7 6 6 7 6 6 6 6 4 5 4 4 5 5 5 5 6 4 4 4 3 3 3 4 5 4 4 4 3 4 4 6 5 6
13 13 13 13 13 12 13 12 13 10 9 8 7 6 7 7 6 6 5 4 4 4 3 5 4 4 5 5 4 3 3 3 2 3 5 5 5 4 3 4 4 5 5
11 12 12 13 12 12 12 13 12 10 8 8 7 8 7 7 6 6 6 5 4 3 3 2 3 4 5 5 4 4 3 3 4 4 2 3 5 5 4 4 3 4 4
10 11 11 12 12 13 13 12 12 12 10 10 10 9 8 7 6 7 6 5 5 3 4 3 3 4 3 3 3 4 4 4 4 3 3 4 3 3 3 3 4 4 5
Wind_Direction
160 151 146 150 145 141 136 133 133 133 134 134 134 134 133 131 128 124 118 112 107 102 97 96 98 99 100 103 105 109 112 113 115 113 112 111 112 113 116 121 121 110 114
153 148 149 151 147 143 138 135 133 133 133 133 133 132 131 130 127 123 117 111 106 102 99 99 100 99 100 104 106 110 113 114 114 115 118 117 114 115 116 113 104 111 116
150 148 153 152 149 145 141 139 137 135 134 134 133 131 130 128 124 120 115 110 105 102 100 100 101 100 102 105 108 109 112 113 115 125 133 123 119 117 114 108 108 117 116
151 151 155 151 150 147 145 142 140 138 136 136 135 133 130 128 124 119 113 109 106 103 101 101 103 103 104 107 109 109 110 112 121 153 132 119 121 118 116 115 116 118 117
152 152 148 152 151 149 147 145 143 141 139 138 136 132 129 126 123 118 115 109 105 103 101 101 102 106 108 111 112 110 110 113 140 153 109 113 112 119 120 119 118 118 119
153 154 149 155 153 151 150 148 146 144 142 139 136 134 132 130 123 117 114 108 104 101 99 99 101 106 112 118 120 117 117 134 178 113 115 119 117 123 122 122 122 120 119
157 155 151 156 154 153 152 151 149 147 145 142 139 137 134 128 121 117 112 109 103 100 98 96 98 103 111 120 126 126 128 165 126 114 121 115 113 124 125 124 123 122 122
159 155 149 156 156 155 155 154 153 150 147 143 141 138 133 129 124 121 116 111 105 101 99 97 95 98 105 115 128 133 141 197 126 115 117 112 113 123 125 126 126 126 125
162 156 154 160 160 159 158 157 156 152 147 145 142 138 135 132 128 124 119 115 110 106 103 99 96 94 99 112 128 138 145 231 131 119 119 114 123 127 128 129 130 132 131
165 160 158 164 162 164 162 160 158 155 150 147 144 143 140 139 137 133 140 122 118 114 109 103 98 97 100 111 128 139 157 205 138 134 121 119 130 136 138 137 135 137 137
169 166 165 164 163 166 164 158 162 158 154 155 155 151 164 165 153 158 124 121 127 124 117 111 106 109 126 131 134 151 183 189 128 122 109 119 141 146 144 142 141 141 141
173 172 170 167 165 168 165 160 166 167 162 173 160 164 174 157 155 141 123 139 140 138 144 130 130 168 202 154 149 180 180 153 135 136 117 131 150 154 151 150 151 150 147
174 172 171 169 168 170 165 164 168 167 164 170 162 166 162 166 165 163 161 162 168 177 179 154 189 192 172 133 166 169 147 159 145 135 127 146 162 164 159 159 161 158 154
176 175 175 170 171 175 172 168 170 169 167 168 161 174 170 177 177 168 178 171 179 178 170 193 184 173 166 174 180 156 163 182 157 127 132 156 169 175 171 169 170 168 164
178 177 175 175 174 172 173 178 175 170 170 166 165 174 180 184 185 178 183 191 200 172 180 192 192 174 183 186 189 171 168 157 161 159 138 161 176 181 180 177 178 176 174
181 179 176 177 176 175 176 180 177 173 170 167 171 171 186 188 185 188 191 195 200 197 189 192 179 183 197 183 187 170 184 175 167 176 159 162 176 182 184 186 187 185 185
179 179 179 179 180 180 180 181 180 176 171 174 166 166 178 188 185 198 199 202 195 182 178 201 183 189 194 188 182 178 181 181 168 182 173 169 174 181 187 192 195 195 195
178 180 181 182 180 182 180 179 177 176 169 171 167 167 176 180 189 206 205 202 187 202 200 192 205 195 193 197 183 186 169 166 169 182 186 194 193 184 183 190 197 200 200
179 177 181 183 178 179 176 176 173 168 169 171 168 171 173 184 191 207 211 185 196 203 207 212 190 213 189 194 184 179 183 179 179 185 188 194 195 204 187 177 192 204 207
180 179 183 183 179 175 169 168 166 168 172 175 174 169 177 183 189 203 197 189 209 203 200 204 176 204 199 200 199 167 184 177 191 175 197 189 190 203 204 187 192 198 203
184 180 183 184 180 176 175 173 170 174 172 176 177 172 182 186 182 203 197 177 212 201 205 198 196 185 199 193 202 187 181 187 185 185 199 205 191 199 195 196 216 209 196
189 185 182 184 182 181 177 173 173 168 172 170 171 168 182 183 185 192 198 196 196 189 196 202 215 223 192 207 234 212 197 181 196 189 191 202 205 198 195 201 208 213 234
191 186 185 185 185 181 171 162 159 156 162 168 174 175 180 182 187 195 193 210 193 212 194 205 209 221 214 202 234 253 242 213 166 172 193 195 202 209 209 192 209 202 220
190 186 182 179 180 175 170 173 173 177 178 176 175 169 172 180 184 184 187 191 203 212 183 207 204 224 228 212 196 245 303 348 268 178 188 183 192 211 216 222 201 191 211
183 179 176 175 174 175 178 178 180 182 176 166 165 162 177 173 181 180 179 181 190 201 188 209 187 231 222 232 215 206 213 227 258 269 212 184 193 198 195 214 220 212 203
170 170 170 171 171 174 178 180 185 180 172 165 171 171 182 174 178 176 178 179 190 183 175 193 202 203 234 240 248 230 226 233 236 249 250 231 216 192 196 217 224 220 219
Height
1523 1525 1526 1529 1532 1534 1536 1538 1540 1541 1543 1544 1546 1547 1548 1548 1549 1550 1551 1551 1552 1553 1553 1554 1554 1554 1555 1555 1555 1555 1556 1557 1557 1558 1559 1560 1560 1561 1562 1563 1564 1565 1565
1522 1525 1527 1530 1533 1535 1537 1539 1541 1543 1544 1546 1547 1548 1549 1550 1551 1552 1553 1553 1554 1554 1555 1555 1556 1556 1556 1556 1557 1557 1558 1559 1560 1561 1561 1562 1563 1563 1564 1566 1567 1567 1568
1522 1524 1527 1531 1534 1536 1538 1540 1542 1544 1546 1547 1548 1550 1551 1552 1552 1553 1554 1555 1555 1556 1556 1557 1557 1558 1558 1558 1559 1560 1560 1561 1562 1563 1564 1565 1565 1566 1567 1568 1569 1569 1570
1523 1525 1528 1531 1535 1537 1539 1542 1543 1545 1547 1548 1550 1551 1552 1553 1554 1555 1556 1556 1557 1558 1558 1559 1559 1560 1560 1560 1561 1562 1563 1564 1564 1565 1567 1567 1568 1568 1569 1570 1571 1571 1573
1524 1527 1529 1532 1535 1538 1541 1543 1545 1546 1548 1550 1551 1552 1554 1555 1556 1557 1558 1558 1559 1559 1560 1561 1561 1562 1562 1563 1563 1564 1565 1566 1567 1569 1569 1569 1570 1570 1571 1572 1573 1574 1575
1525 1528 1530 1533 1536 1539 1541 1544 1546 1548 1549 1551 1552 1554 1555 1556 1557 1558 1559 1560 1560 1561 1562 1563 1563 1564 1564 1565 1565 1566 1567 1568 1569 1571 1571 1572 1572 1572 1573 1574 1575 1576 1577
1526 1530 1531 1534 1537 1540 1542 1545 1547 1549 1550 1552 1554 1555 1556 1557 1559 1559 1560 1561 1562 1563 1564 1564 1565 1566 1566 1567 1568 1568 1569 1570 1573 1573 1573 1574 1573 1574 1575 1576 1577 1578 1579
1527 1531 1531 1534 1538 1541 1543 1546 1548 1550 1551 1553 1555 1556 1557 1559 1560 1561 1562 1563 1563 1564 1565 1566 1567 1568 1568 1569 1570 1570 1571 1572 1574 1575 1576 1576 1575 1576 1577 1578 1579 1580 1580
1528 1531 1532 1535 1538 1541 1544 1546 1549 1551 1552 1554 1556 1557 1558 1560 1561 1562 1563 1564 1565 1566 1567 1568 1568 1569 1570 1571 1571 1572 1573 1573 1577 1577 1577 1577 1577 1577 1579 1579 1580 1581 1582
1529 1532 1533 1537 1539 1542 1544 1547 1549 1551 1553 1555 1556 1558 1559 1560 1562 1563 1564 1565 1566 1567 1568 1569 1570 1571 1572 1572 1573 1574 1574 1575 1579 1579 1579 1578 1578 1579 1580 1581 1582 1583 1584
1527 1531 1534 1537 1539 1543 1546 1547 1549 1552 1553 1555 1557 1558 1560 1563 1564 1564 1565 1566 1567 1568 1569 1570 1571 1572 1573 1574 1574 1575 1576 1578 1580 1580 1580 1579 1580 1580 1581 1582 1583 1584 1585
1525 1529 1532 1536 1539 1542 1546 1547 1550 1553 1554 1557 1558 1559 1562 1563 1564 1566 1565 1566 1567 1568 1570 1571 1572 1573 1574 1576 1576 1576 1578 1579 1580 1581 1580 1580 1581 1582 1582 1583 1585 1585 1586
1523 1527 1530 1534 1538 1541 1544 1547 1550 1552 1554 1556 1558 1559 1561 1563 1564 1566 1567 1567 1568 1569 1571 1571 1573 1575 1576 1577 1578 1578 1579 1580 1581 1582 1581 1581 1581 1582 1583 1584 1585 1586 1587
1521 1525 1529 1532 1536 1540 1544 1546 1549 1552 1554 1556 1557 1559 1561 1563 1564 1566 1566 1568 1569 1570 1571 1572 1573 1574 1575 1576 1577 1578 1579 1580 1581 1582 1581 1581 1582 1583 1584 1585 1586 1587 1588
1519 1523 1527 1530 1534 1538 1541 1545 1549 1551 1553 1555 1557 1559 1560 1563 1564 1565 1566 1567 1569 1569 1570 1571 1573 1573 1574 1576 1577 1578 1579 1580 1581 1582 1582 1581 1582 1583 1584 1585 1586 1587 1588
1518 1521 1525 1528 1532 1537 1540 1544 1547 1550 1552 1555 1557 1558 1560 1562 1563 1564 1565 1566 1568 1569 1570 1571 1572 1573 1574 1575 1576 1577 1578 1579 1580 1581 1582 1581 1582 1583 1584 1585 1586 1587 1588
1516 1520 1523 1527 1531 1535 1539 1543 1546 1549 1552 1554 1556 1557 1559 1561 1562 1564 1565 1566 1567 1568 1568 1570 1571 1572 1573 1575 1575 1576 1577 1578 1579 1580 1581 1582 1582 1582 1583 1584 1585 1586 1587
1514 1517 1521 1526 1530 1534 1537 1541 1545 1548 1551 1553 1555 1557 1558 1560 1561 1562 1564 1566 1566 1567 1569 1569 1571 1572 1573 1574 1575 1576 1576 1577 1578 1579 1580 1581 1582 1583 1583 1583 1584 1585 1586
1511 1515 1519 1524 1528 1532 1536 1540 1543 1546 1549 1552 1554 1556 1557 1559 1560 1562 1563 1564 1565 1567 1568 1569 1570 1572 1572 1573 1574 1575 1576 1576 1577 1578 1579 1580 1580 1581 1582 1582 1583 1584 1585
1510 1513 1517 1521 1525 1530 1533 1537 1541 1545 1547 1551 1553 1555 1556 1558 1559 1561 1562 1563 1565 1566 1567 1568 1568 1569 1571 1572 1574 1574 1575 1576 1577 1577 1578 1579 1579 1580 1581 1582 1582 1583 1583
1507 1511 1514 1519 1523 1527 1531 1535 1539 1543 1546 1549 1552 1553 1555 1557 1558 1559 1562 1562 1563 1565 1566 1567 1568 1569 1570 1571 1573 1574 1574 1575 1576 1576 1578 1578 1579 1579 1580 1580 1581 1582 1582
1504 1508 1511 1515 1520 1524 1528 1533 1537 1541 1545 1548 1550 1552 1554 1555 1557 1559 1560 1562 1563 1563 1564 1566 1567 1569 1570 1571 1572 1573 1574 1575 1575 1576 1576 1577 1578 1578 1579 1579 1580 1580 1581
1502 1505 1508 1512 1516 1521 1526 1531 1535 1539 1542 1546 1548 1550 1552 1554 1556 1558 1559 1561 1561 1563 1564 1564 1566 1567 1569 1570 1571 1572 1572 1572 1574 1575 1575 1576 1577 1577 1578 1578 1578 1579 1579
1499 1502 1506 1509 1514 1518 1523 1528 1533 1537 1540 1544 1547 1549 1551 1553 1555 1556 1557 1559 1560 1562 1562 1564 1565 1566 1567 1569 1570 1570 1572 1572 1573 1573 1575 1575 1576 1576 1577 1577 1578 1577 1577
1497 1500 1503 1507 1511 1516 1521 1526 1531 1535 1539 1542 1545 1547 1550 1552 1553 1555 1556 1557 1558 1561 1561 1562 1563 1565 1566 1568 1569 1570 1571 1572 1572 1573 1573 1574 1575 1575 1576 1576 1576 1577 1577
1495 1498 1501 1505 1509 1514 1519 1524 1528 1533 1537 1540 1543 1546 1549 1551 1552 1553 1555 1556 1558 1560 1560 1561 1562 1563 1565 1566 1568 1569 1570 1571 1571 1572 1572 1573 1573 1574 1574 1575 1575 1575 1576